Total_Precipitation_Accumulation
0.95 0.99 1.04 0.96 0.95 0.97 1.09 1.30 1.53 1.37 0.91 0.65 0.67 0.68 0.70 0.78 0.94 0.99 1.01 1.14 1.13 1.13 1.16 1.21 1.30 1.22 1.14 1.13 1.24 1.29 1.32 1.44 1.63 1.81 2.00 2.33 2.76 3.56
1.09 1.08 1.08 1.05 1.00 0.93 0.94 1.01 1.24 1.45 1.37 0.79 0.78 0.85 0.89 0.96 1.04 0.92 0.81 0.96 0.88 0.87 0.90 0.92 0.87 0.82 0.82 0.84 0.89 0.88 0.94 1.00 1.10 1.31 1.47 1.69 1.98 2.24
1.26 1.25 1.13 1.19 1.48 1.55 1.51 1.56 1.72 1.94 2.10 1.47 1.05 0.96 0.91 0.84 0.86 0.83 0.75 0.63 0.59 0.77 0.68 0.66 0.63 0.58 0.61 0.62 0.61 0.63 0.63 0.65 0.77 0.96 1.16 1.36 1.50 1.67
0.90 1.02 0.97 0.96 0.99 0.97 1.03 1.13 1.24 1.36 1.63 1.46 1.08 1.05 1.02 0.96 0.95 0.94 0.89 0.83 0.76 0.92 0.81 0.58 0.42 0.33 0.33 0.35 0.42 0.47 0.51 0.55 0.59 0.63 0.66 0.72 0.80 0.89
0.69 0.70 0.66 0.77 0.82 0.93 1.07 1.21 1.27 1.40 1.58 1.59 1.25 1.08 1.01 0.98 1.02 0.99 0.94 0.90 0.84 0.98 0.85 0.69 0.67 0.60 0.52 0.51 0.48 0.42 0.34 0.29 0.29 0.32 0.37 0.40 0.43 0.55
0.37 0.48 0.58 0.72 0.84 0.97 1.05 1.04 1.10 1.22 1.23 1.23 1.04 0.78 0.61 0.57 0.67 0.62 0.56 0.51 0.49 0.56 0.62 0.54 0.56 0.54 0.52 0.49 0.46 0.45 0.42 0.39 0.31 0.26 0.30 0.35 0.39 0.48
0.27 0.31 0.33 0.46 0.57 0.62 0.77 0.86 1.00 1.17 1.30 1.30 1.03 0.79 0.53 0.35 0.30 0.27 0.34 0.32 0.34 0.33 0.31 0.32 0.32 0.26 0.23 0.26 0.25 0.33 0.41 0.48 0.59 0.67 0.64 0.56 0.54 0.53
0.28 0.36 0.45 0.59 0.53 0.51 0.46 0.43 0.44 0.61 0.78 0.86 0.87 0.73 0.58 0.54 0.60 0.66 0.68 0.65 0.52 0.20 0.17 0.13 0.12 0.11 0.13 0.19 0.30 0.34 0.32 0.40 0.47 0.56 0.67 0.70 0.67 0.63
0.48 0.45 0.37 0.35 0.35 0.29 0.29 0.31 0.35 0.36 0.39 0.37 0.34 0.24 0.26 0.31 0.52 0.66 0.66 0.61 0.46 0.24 0.36 0.34 0.16 0.08 0.04 0.12 0.23 0.23 0.32 0.37 0.38 0.43 0.58 0.66 0.75 0.80
0.45 0.40 0.33 0.26 0.19 0.14 0.18 0.22 0.11 0.08 0.13 0.22 0.25 0.32 0.46 0.51 0.70 0.92 0.83 0.74 0.61 0.42 0.42 0.48 0.15 0.12 0.06 0.05 0.12 0.10 0.17 0.24 0.32 0.39 0.47 0.56 0.71 0.81
0.14 0.07 0.03 0.03 0.05 0.13 0.14 0.08 0.03 0.03 0.10 0.20 0.30 0.38 0.45 0.53 0.61 0.85 1.00 1.09 0.96 0.47 0.36 0.49 0.24 0.20 0.16 0.11 0.10 0.12 0.08 0.13 0.19 0.29 0.41 0.51 0.57 0.64
0.01 0.00 0.02 0.02 0.09 0.17 0.14 0.11 0.13 0.04 0.13 0.12 0.13 0.15 0.20 0.31 0.46 0.56 0.60 1.07 0.91 0.90 0.41 0.68 0.45 0.48 0.82 0.28 0.16 0.16 0.13 0.15 0.17 0.21 0.27 0.34 0.48 0.47
0.03 0.01 0.00 0.07 0.15 0.18 0.25 0.25 0.26 0.26 0.25 0.25 0.23 0.30 0.33 0.35 0.37 0.38 0.37 0.72 1.10 0.86 0.27 1.08 1.15 0.66 1.04 0.48 0.18 0.23 0.22 0.20 0.22 0.21 0.25 0.33 0.49 0.62
0.04 0.03 0.04 0.16 0.22 0.25 0.28 0.29 0.36 0.42 0.33 0.29 0.26 0.24 0.24 0.24 0.21 0.21 0.27 0.29 0.38 0.64 0.33 0.62 1.52 0.67 1.05 0.84 0.33 0.19 0.29 0.26 0.27 0.28 0.24 0.38 0.46 0.65
0.08 0.14 0.21 0.27 0.28 0.25 0.25 0.30 0.34 0.34 0.29 0.29 0.25 0.20 0.17 0.21 0.32 0.43 0.45 0.44 0.46 0.37 0.35 0.30 0.72 0.68 1.11 1.19 0.66 0.22 0.39 0.33 0.27 0.34 0.41 0.47 0.46 0.45
0.20 0.29 0.37 0.35 0.35 0.32 0.28 0.23 0.25 0.31 0.36 0.34 0.35 0.30 0.37 0.48 0.50 0.44 0.62 0.55 0.73 0.56 0.40 0.39 0.46 0.76 1.07 0.65 0.91 0.66 0.41 0.71 0.32 0.32 0.52 0.50 0.47 0.46
0.65 0.47 0.42 0.45 0.40 0.31 0.24 0.26 0.33 0.36 0.43 0.34 0.42 0.41 0.39 0.46 0.51 0.58 0.77 0.78 0.92 0.58 0.50 0.43 0.46 0.64 0.65 0.68 0.95 0.47 0.48 0.46 0.44 0.58 0.68 0.68 0.48 0.50
0.79 0.52 0.44 0.38 0.37 0.40 0.44 0.42 0.36 0.42 0.41 0.48 0.47 0.53 0.61 0.57 0.61 0.56 0.69 0.90 0.96 0.62 0.63 0.58 0.59 0.72 0.68 0.56 0.62 0.59 0.61 0.51 0.47 0.51 0.55 1.02 0.64 0.41
0.73 0.27 0.26 0.37 0.47 0.48 0.46 0.55 0.54 0.38 0.52 0.74 0.91 0.89 0.94 0.91 0.88 0.77 0.71 0.82 0.79 0.75 0.79 0.79 0.98 1.28 1.36 0.74 0.49 0.57 0.95 0.70 0.49 0.51 0.56 0.74 0.81 0.56
0.44 0.31 0.33 0.39 0.45 0.60 0.66 0.61 0.61 0.70 0.82 0.92 1.12 1.16 1.19 1.26 1.04 0.87 0.80 0.95 0.97 0.80 0.74 0.80 0.99 1.23 1.88 1.38 1.08 0.52 0.53 0.72 0.93 0.85 0.69 0.68 0.91 0.83
0.29 0.35 0.37 0.47 0.46 0.47 0.57 0.76 0.86 0.86 0.92 1.03 0.94 1.02 1.03 1.34 1.04 0.81 0.86 0.88 1.01 1.08 0.97 0.62 0.59 0.90 1.28 1.59 1.55 0.80 0.60 0.59 0.74 1.21 1.09 1.10 0.80 0.61
0.30 0.36 0.29 0.31 0.38 0.48 0.58 0.70 0.81 0.79 0.81 0.74 0.73 0.82 0.89 1.15 1.14 0.92 0.89 1.04 0.81 0.75 0.83 0.74 0.73 0.84 1.10 1.46 1.02 0.55 0.51 0.60 0.73 0.75 0.78 1.47 1.83 1.73
0.40 0.48 0.41 0.35 0.38 0.47 0.60 0.65 0.65 0.58 0.62 0.74 0.80 0.80 0.91 1.06 0.80 0.93 0.96 0.95 0.91 0.99 0.82 0.91 0.81 0.78 0.70 0.74 0.82 0.71 0.51 0.49 0.55 0.72 0.74 0.69 0.78 0.90